DW1274 Weather Reports


time (UTC)temp
F
wind
direction
speed
knots
gust
knots
rain 1hr
in
rain 24hr
in
rain mn
in
humidity
%
barometer
mb
20260510100630 71 0 0.0 0.9 0.00 0.17 0.00 99 1013.2
20260510100130 71 311 0.0 0.9 0.00 0.17 0.00 99 1013.1
20260510095630 71 0 0.0 0.0 0.00 0.17 0.00 99 1013.1
20260510095130 71 0 0.0 0.0 0.00 0.17 0.00 99 1013.0
20260510094629 71 0 0.0 0.0 0.00 0.17 0.00 99 1012.9
20260510094133 71 0 0.0 0.0 0.00 0.17 0.00 99 1012.9
20260510093629 71 0 0.0 0.0 0.00 0.17 0.00 99 1012.9
20260510093130 71 0 0.0 0.9 0.00 0.17 0.00 99 1012.8
20260510092630 71 0 0.0 0.9 0.00 0.17 0.00 99 1012.8
20260510091621 71 0 0.0 0.9 0.00 0.17 0.00 99 1012.6
20260510091118 71 0 0.9 1.7 0.00 0.17 0.00 99 1012.5
20260510090618 71 180 1.7 1.7 0.00 0.17 0.00 99 1012.4
20260510090119 71 88 0.9 1.7 0.00 0.17 0.00 99 1012.3
20260510085618 71 90 0.0 1.7 0.00 0.17 0.00 99 1012.4
20260510085119 71 0 0.0 0.9 0.00 0.17 0.00 99 1012.4
20260510084618 71 0 0.0 0.0 0.00 0.17 0.00 99 1012.4
20260510083609 71 0 0.0 1.7 0.00 0.17 0.00 99 1012.3
20260510083109 71 0 0.9 1.7 0.00 0.17 0.00 99 1012.2
20260510082603 71 344 0.9 1.7 0.00 0.17 0.00 99 1012.2
20260510082104 71 0 0.9 2.6 0.00 0.17 0.00 99 1012.1
20260510081103 71 90 0.9 2.6 0.00 0.17 0.00 99 1012.0
20260510080603 71 90 0.0 1.7 0.00 0.17 0.00 99 1012.1
20260510080103 71 0 0.0 0.0 0.00 0.17 0.00 99 1012.1
20260510075603 71 0 0.0 1.7 0.00 0.17 0.00 99 1012.1
20260510075106 71 0 0.0 1.7 0.00 0.17 0.00 99 1012.2
20260510074603 71 0 0.0 1.7 0.00 0.17 0.00 99 1012.2
20260510074105 71 0 0.0 0.0 0.00 0.17 0.00 99 1012.3
20260510073603 71 0 0.0 0.9 0.00 0.17 0.00 99 1012.3
20260510073103 71 0 0.0 0.9 0.00 0.17 0.00 99 1012.3
20260510072601 71 0 0.0 0.9 0.00 0.17 0.00 99 1012.2
20260510072102 71 0 0.0 0.9 0.00 0.17 0.00 99 1012.1
20260510071102 71 0 0.0 0.0 0.00 0.17 0.00 99 1012.1
20260510070602 71 0 0.0 0.9 0.00 0.17 0.00 99 1012.2
20260510070105 71 62 0.0 0.9 0.00 0.17 0.00 99 1012.1
20260510064626 71 0 0.0 0.9 0.00 0.17 0.00 99 1012.1
20260510064102 71 0 0.0 0.9 0.00 0.17 0.00 99 1012.2
20260510063602 71 170 0.0 0.9 0.00 0.17 0.00 99 1012.2
20260510063102 71 0 0.0 1.7 0.00 0.17 0.00 99 1012.2
20260510062603 71 0 0.0 1.7 0.00 0.17 0.00 99 1012.3
20260510061601 71 0 0.9 1.7 0.00 0.17 0.00 99 1012.3
20260510061102 71 197 0.0 1.7 0.00 0.17 0.00 99 1012.4
20260510060101 71 0 0.9 3.5 0.00 0.17 0.00 99 1012.4
20260510055602 71 110 0.9 3.5 0.00 0.17 0.00 99 1012.4
20260510055102 71 0 0.0 1.7 0.00 0.17 0.00 99 1012.5
20260510054602 71 190 0.0 2.6 0.00 0.17 0.00 99 1012.7
20260510054102 71 0 0.0 2.6 0.00 0.17 0.00 99 1012.7
20260510053101 70 101 0.0 1.7 0.00 0.17 0.00 99 1012.8
20260510052603 70 185 0.0 1.7 0.00 0.17 0.00 99 1012.9
20260510052102 70 0 0.9 2.6 0.00 0.17 0.00 100 1012.9
20260510051601 70 151 0.9 2.6 0.00 0.17 0.00 100 1013.0
20260510051102 69 167 0.0 1.7 0.00 0.17 0.00 100 1013.0
20260510050602 69 178 0.0 1.7 0.00 0.17 0.00 100 1013.1
20260510045607 69 0 0.0 0.0 0.00 0.27 0.00 100 1013.4
20260510045103 69 0 0.0 0.0 0.00 0.50 0.00 100 1013.4
20260510044601 69 0 0.0 0.0 0.00 0.50 0.00 100 1013.5
20260510044102 69 0 0.0 0.0 0.00 0.50 0.00 100 1013.5
20260510043602 69 0 0.0 0.0 0.00 0.50 0.00 100 1013.4
20260510043101 69 0 0.0 0.0 0.00 0.50 0.00 100 1013.4
20260510042602 69 0 0.0 0.0 0.00 0.50 0.00 100 1013.3
20260510042102 69 0 0.0 0.0 0.00 0.50 0.00 100 1013.3
20260510041601 69 0 0.0 0.0 0.00 0.50 0.00 100 1013.3
20260510041101 69 0 0.0 0.0 0.00 0.50 0.00 100 1013.4
20260510040602 69 0 0.0 0.0 0.00 0.50 0.00 100 1013.4
20260510035602 69 0 0.0 0.9 0.00 0.50 0.50 100 1013.4
20260510035102 69 0 0.0 0.0 0.00 0.50 0.50 100 1013.5
20260510034602 69 0 0.0 0.0 0.00 0.50 0.50 100 1013.4
20260510034100 69 0 0.0 0.0 0.00 0.50 0.50 100 1013.5
20260510033602 69 0 0.0 0.0 0.00 0.50 0.50 99 1013.5
20260510032103 69 0 0.0 1.7 0.00 0.50 0.50 99 1013.5
20260510031602 69 165 0.0 0.9 0.00 0.50 0.50 99 1013.5
20260510030601 69 0 0.0 0.0 0.00 0.50 0.50 99 1013.6
20260510025601 69 0 0.0 0.0 0.00 0.50 0.50 99 1013.5
20260510024602 70 0 0.0 0.0 0.00 0.50 0.50 99 1013.2
20260510024102 70 0 0.0 0.9 0.00 0.50 0.50 99 1013.2
20260510023602 70 0 0.0 0.9 0.00 0.50 0.50 99 1013.2
20260510023100 70 0 0.0 1.7 0.00 0.50 0.50 99 1013.0
20260510022602 70 0 0.9 2.6 0.00 0.50 0.50 99 1013.0
20260510022103 70 161 0.9 2.6 0.00 0.50 0.50 99 1012.7
20260510021101 70 0 0.0 0.0 0.00 0.50 0.50 99 1012.8
20260510020601 70 0 0.0 0.0 0.00 0.50 0.50 99 1012.7
20260510015106 70 297 0.9 1.7 0.00 0.50 0.50 99 1012.5
20260510014602 70 274 0.9 1.7 0.00 0.50 0.50 99 1012.4
20260510014102 70 285 0.9 1.7 0.00 0.50 0.50 99 1012.2
20260510013602 70 0 0.0 0.0 0.00 0.50 0.50 99 1012.1
20260510013102 70 0 0.9 1.7 0.00 0.50 0.50 99 1012.0
20260510011602 70 0 0.0 0.9 0.00 0.50 0.50 98 1012.0
20260510011104 70 0 0.0 1.7 0.00 0.50 0.50 98 1012.1
20260510010602 70 0 0.0 1.7 0.00 0.50 0.50 98 1012.2
20260510005103 70 0 0.0 0.9 0.00 0.50 0.50 98 1012.1
20260510004602 70 0 0.0 0.0 0.00 0.50 0.50 98 1012.0
20260510003602 70 0 0.0 0.9 0.00 0.50 0.50 98 1011.9
20260510003102 70 0 0.0 0.9 0.01 0.50 0.50 98 1012.0
20260510002602 70 0 0.0 0.9 0.02 0.50 0.50 98 1012.0
20260510002102 70 0 0.0 0.0 0.02 0.50 0.50 98 1012.2
20260510001603 70 0 0.0 1.7 0.02 0.50 0.50 98 1012.3
20260510001102 70 0 0.0 1.7 0.03 0.50 0.50 98 1012.3
20260510000602 70 0 0.0 0.9 0.03 0.50 0.50 97 1012.3
20260509235602 70 217 0.0 1.7 0.03 0.50 0.50 97 1012.5
20260509235102 70 0 0.9 2.6 0.03 0.50 0.50 97 1012.5
20260509234603 71 312 1.7 2.6 0.03 0.50 0.50 97 1012.5
20260509234100 71 307 0.9 2.6 0.02 0.50 0.50 97 1012.8
20260509233600 71 0 0.9 1.7 0.02 0.50 0.50 97 1012.9
20260509233101 71 232 0.0 1.7 0.02 0.49 0.49 96 1012.7
20260509232106 71 0 0.0 0.0 0.01 0.49 0.49 96 1012.5
20260509231601 71 0 0.0 0.9 0.01 0.49 0.49 96 1012.5
20260509225603 71 288 0.0 1.7 0.00 0.48 0.48 95 1012.5
20260509225101 71 0 0.0 1.7 0.00 0.48 0.48 95 1012.4
20260509224602 71 29 0.0 1.7 0.00 0.48 0.48 95 1012.4
20260509223558 71 0 0.9 3.5 0.00 0.48 0.48 95 1012.3
20260509223104 71 42 0.9 3.5 0.00 0.48 0.48 95 1012.2
20260509222059 71 34 0.9 2.6 0.00 0.48 0.48 95 1012.2
20260509221549 71 13 1.7 3.5 0.00 0.48 0.48 95 1012.2
20260509221043 71 35 1.7 3.5 0.00 0.48 0.48 95 1012.2
20260509220544 71 65 0.9 2.6 0.00 0.48 0.48 95 1012.2
20260509220044 71 15 1.7 2.6 0.00 0.48 0.48 95 1012.1
20260509215545 71 36 1.7 3.5 0.00 0.48 0.48 95 1012.1
20260509215044 71 18 1.7 3.5 0.00 0.48 0.48 95 1012.2
20260509214544 71 12 0.9 2.6 0.00 0.48 0.48 95 1012.2
20260509214044 71 18 1.7 3.5 0.00 0.48 0.48 95 1012.0
20260509213544 71 25 1.7 3.5 0.00 0.48 0.48 95 1011.9
20260509213045 71 343 2.6 5.2 0.00 0.48 0.48 95 1012.0
20260509212545 71 20 2.6 5.2 0.00 0.48 0.48 95 1011.9
20260509211543 71 324 3.5 7.0 0.00 0.48 0.48 95 1011.9
20260509211044 71 353 4.3 7.8 0.00 0.48 0.48 95 1011.9
20260509210544 71 297 3.5 7.8 0.00 0.48 0.48 96 1011.9
20260509210043 71 309 3.5 6.1 0.00 0.48 0.48 96 1011.9
20260509205543 71 339 4.3 7.8 0.00 0.48 0.48 96 1011.8
20260509204544 71 330 3.5 7.8 0.00 0.48 0.48 96 1011.8
20260509204042 71 8 3.5 7.0 0.02 0.48 0.48 96 1011.9
20260509203542 71 354 4.3 8.7 0.03 0.48 0.48 96 1011.9
20260509203043 71 324 4.3 8.7 0.04 0.48 0.48 96 1011.8
20260509202042 71 302 4.3 7.8 0.06 0.48 0.48 96 1011.9
20260509201543 72 289 3.5 9.6 0.07 0.48 0.48 96 1011.9
20260509201042 72 346 4.3 9.6 0.07 0.48 0.48 96 1012.0
20260509200542 72 303 4.3 7.8 0.07 0.48 0.48 97 1012.0
20260509195541 73 291 3.5 7.0 0.10 0.48 0.48 96 1011.8
20260509195039 74 300 3.5 7.0 0.10 0.48 0.48 97 1011.9
20260509194535 74 267 3.5 7.0 0.12 0.49 0.48 96 1012.0
20260509194035 74 300 3.5 6.1 0.11 0.48 0.46 96 1012.0
20260509193535 74 278 3.5 5.2 0.10 0.46 0.45 95 1012.0
20260509193035 74 267 2.6 5.2 0.09 0.45 0.44 95 1011.8
20260509192531 75 291 1.7 4.3 0.08 0.45 0.43 94 1011.8
20260509192030 75 167 0.9 2.6 0.07 0.44 0.42 94 1011.9
20260509191534 75 302 0.9 2.6 0.06 0.43 0.41 93 1012.0
20260509191027 76 302 0.0 1.7 0.05 0.42 0.40 92 1011.9
20260509190522 76 0 0.0 3.5 0.05 0.43 0.40 91 1012.0
20260509190023 77 0 0.0 3.5 0.04 0.42 0.39 91 1012.0
20260509185021 78 0 0.0 3.5 0.02 0.40 0.37 88 1011.7
20260509184519 78 0 1.7 6.1 0.01 0.39 0.36 86 1011.6
20260509184020 78 248 2.6 6.1 0.00 0.38 0.35 85 1011.6
20260509183521 79 298 0.9 3.5 0.00 0.38 0.35 85 1011.7
20260509183007 79 17 1.7 4.3 0.00 0.38 0.35 84 1011.7
20260509182509 79 251 1.7 4.3 0.00 0.38 0.35 84 1011.9
20260509182007 79 331 2.6 5.2 0.00 0.38 0.35 83 1011.8
20260509181506 80 310 1.7 5.2 0.00 0.38 0.35 82 1011.8
20260509181005 80 188 0.9 4.3 0.00 0.38 0.35 82 1011.8
20260509180006 80 0 2.6 7.8 0.00 0.38 0.35 83 1011.9
20260509175002 80 295 2.6 6.1 0.00 0.39 0.35 81 1012.1
20260509174503 80 334 2.6 7.0 0.00 0.39 0.35 81 1012.1
20260509174004 80 280 1.7 7.0 0.00 0.39 0.35 82 1012.1
20260509173503 80 0 2.6 7.0 0.00 0.39 0.35 83 1012.2
20260509173003 79 6 3.5 12.2 0.00 0.39 0.35 83 1012.3
20260509172503 80 324 1.7 12.2 0.00 0.39 0.35 83 1012.3
20260509172003 79 270 0.9 7.0 0.00 0.39 0.35 83 1012.2
20260509171502 79 258 0.9 4.3 0.00 0.39 0.35 82 1012.2
20260509171000 79 276 1.7 5.2 0.00 0.39 0.35 83 1012.2
20260509170500 79 36 1.7 6.1 0.00 0.39 0.35 83 1012.2
20260509170001 78 327 1.7 6.1 0.00 0.39 0.35 85 1012.2
20260509165501 78 337 1.7 6.1 0.00 0.39 0.35 85 1012.3
20260509164501 78 253 0.9 3.5 0.00 0.39 0.35 86 1012.3
20260509164001 77 0 0.9 4.3 0.00 0.39 0.35 86 1012.4
20260509163500 76 0 0.9 4.3 0.00 0.39 0.35 88 1012.4
20260509163001 76 0 1.7 4.3 0.00 0.42 0.35 89 1012.4
20260509162501 76 34 0.9 3.5 0.00 0.42 0.35 88 1012.3
20260509162001 75 317 0.9 3.5 0.00 0.42 0.35 90 1012.5
20260509161501 75 138 1.7 3.5 0.00 0.42 0.35 89 1012.6
20260509161002 75 0 1.7 3.5 0.00 0.42 0.35 90 1012.6
20260509160501 74 100 1.7 3.5 0.00 0.42 0.35 90 1012.6
20260509160009 74 125 1.7 3.5 0.00 0.42 0.35 90 1012.5
20260509155500 74 73 1.7 3.5 0.00 0.42 0.35 89 1012.6
20260509155000 74 72 0.9 2.6 0.00 0.42 0.35 89 1012.7
20260509154500 74 0 0.9 3.5 0.00 0.42 0.35 90 1012.8
20260509154002 74 235 0.9 3.5 0.00 0.42 0.35 90 1012.6
20260509153001 74 0 1.7 5.2 0.00 0.43 0.35 90 1012.4
20260509152501 74 30 2.6 6.1 0.00 0.43 0.35 90 1012.5
20260509152001 74 17 3.5 6.1 0.00 0.43 0.35 90 1012.5
20260509151505 74 354 2.6 5.2 0.00 0.43 0.35 90 1012.6
20260509151001 74 2 1.7 3.5 0.00 0.43 0.35 89 1012.6
20260509150501 74 30 0.9 3.5 0.00 0.43 0.35 89 1012.8
20260509145501 74 0 0.9 3.5 0.00 0.43 0.35 89 1012.9
20260509145001 74 26 0.9 3.5 0.00 0.43 0.35 89 1012.8
20260509144001 74 155 0.9 2.6 0.00 0.43 0.35 88 1012.7
20260509143501 73 38 0.9 3.5 0.00 0.43 0.35 89 1012.8
20260509143002 73 32 1.7 3.5 0.00 0.43 0.35 91 1012.8
20260509142501 73 59 0.9 3.5 0.00 0.43 0.35 91 1012.7
20260509142001 73 98 0.9 4.3 0.00 0.43 0.35 90 1012.7
20260509141501 73 26 0.9 4.3 0.00 0.43 0.35 90 1012.7
20260509141001 72 331 0.0 3.5 0.00 0.42 0.34 91 1012.7
20260509140501 71 0 0.0 1.7 0.00 0.42 0.34 91 1012.6
20260509140000 71 0 0.9 1.7 0.00 0.42 0.34 91 1012.5
20260509135501 72 0 0.0 1.7 0.00 0.42 0.34 90 1012.5
20260509135002 71 0 0.0 1.7 0.00 0.42 0.34 91 1012.6
20260509134500 71 0 0.0 1.7 0.00 0.42 0.34 91 1012.6
20260509134001 71 42 0.0 2.6 0.00 0.42 0.34 91 1012.6
20260509133001 70 321 1.7 2.6 0.00 0.42 0.34 92 1012.7
20260509132501 70 321 1.7 2.6 0.00 0.42 0.34 92 1012.6
20260509132002 70 291 1.7 3.5 0.00 0.42 0.34 92 1012.5
20260509131502 70 320 2.6 4.3 0.00 0.42 0.34 92 1012.5
20260509131001 71 280 2.6 4.3 0.00 0.42 0.34 92 1012.5
20260509130503 70 341 2.6 3.5 0.00 0.42 0.34 92 1012.5
20260509130002 70 351 1.7 3.5 0.00 0.42 0.34 92 1012.4
20260509125502 70 280 1.7 3.5 0.00 0.42 0.34 92 1012.4
20260509125001 70 305 1.7 2.6 0.00 0.42 0.34 92 1012.4
20260509124502 70 323 0.9 3.5 0.00 0.42 0.34 93 1012.4
20260509123502 70 319 1.7 4.3 0.00 0.42 0.34 95 1012.3
20260509122502 69 6 3.5 5.2 0.00 0.42 0.34 97 1012.0
20260509122001 69 353 3.5 5.2 0.00 0.42 0.34 98 1011.9
20260509121502 69 10 2.6 3.5 0.00 0.42 0.34 99 1011.9
20260509121003 69 356 0.9 3.5 0.00 0.42 0.34 99 1011.8
20260509120501 68 0 0.9 3.5 0.00 0.42 0.34 99 1011.9
20260509120002 68 0 1.7 3.5 0.00 0.42 0.34 100 1011.8
20260509115502 67 349 1.7 3.5 0.00 0.42 0.34 100 1011.9
20260509114503 67 315 2.6 5.2 0.00 0.42 0.34 100 1012.0
20260509114001 66 289 3.5 5.2 0.00 0.42 0.34 100 1012.0
20260509113502 66 321 1.7 3.5 0.00 0.42 0.34 100 1011.7
20260509113002 66 312 0.9 2.6 0.00 0.42 0.34 100 1011.4
20260509112002 66 0 0.9 1.7 0.00 0.42 0.34 100 1011.0
20260509111502 66 183 0.9 1.7 0.00 0.42 0.34 100 1011.0
20260509111000 65 0 0.9 1.7 0.00 0.42 0.34 100 1011.0
20260509110503 65 204 0.9 1.7 0.00 0.42 0.34 100 1010.9
20260509110002 65 0 0.9 1.7 0.00 0.42 0.34 100 1010.8
20260509105502 65 0 0.9 1.7 0.00 0.42 0.34 100 1010.7
20260509105001 65 197 1.7 2.6 0.00 0.42 0.34 100 1010.7
20260509104500 65 200 2.6 2.6 0.00 0.42 0.34 100 1010.5
20260509104001 65 210 1.7 3.5 0.00 0.42 0.34 100 1010.3
20260509103502 65 194 1.7 3.5 0.00 0.42 0.34 100 1010.2
20260509103003 66 206 1.7 2.6 0.00 0.42 0.34 100 1010.1
20260509102001 66 183 1.7 2.6 0.00 0.42 0.34 100 1010.3
20260509101502 66 182 1.7 2.6 0.00 0.42 0.34 100 1010.4